Tracking 19575 objects as of 19-Feb-2019
HD Live streaming from Space Station
objects crossing your sky now

COSMOS 2300

Track COSMOS 2300 now!
10-day predictions
COSMOS 2300 is classified as:


NORAD ID: 23442
Int'l Code: 1994-086B
Perigee: 1,416.5 km
Apogee: 1,421.1 km
Inclination: 82.6 °
Period: 114.0 minutes
Semi major axis: 7789 km
RCS: 1.1654 m2 (large)
Launch date: December 26, 1994
Source: Commonwealth of Independent States (former USSR) (CIS)
Launch site: PLESETSK MISSILE AND SPACE COMPLEX (PKMTR)
aabbcc
Your satellite tracking list
Your tracking list is empty




NASA's NSSDC Master Catalog

Two Line Element Set (TLE):
1 23442U 94086B   19049.96920779 +.00000016 +00000-0 +30593-4 0  9995
2 23442 082.5614 215.7111 0003003 170.9368 305.4371 12.62737655112945
Source of the keplerian elements: AFSPC